Regional Weather Roundup
Issued by NWS

Home | Current Version | Previous Version | Text Only | Print | Product List | Glossary Off
Versions: 1 2 3 4 5 6 7 8 9 10 11 12 13 14 15 16 17 18 19 20 21 22 23 24 25 26 27 28 29 30 31 32 33 34 35 36 37 38 39 40 41 42 43 44 45 46 47 48 49 50

000
ASUS43 KLSX 030759
RWRMO

WEATHER SUMMARY FOR MISSOURI
NATIONAL WEATHER SERVICE SPRINGFIELD MO
300 AM CDT FRI JUL 03 2015

NOTE: "FAIR" INDICATES FEW OR NO CLOUDS BELOW 12,000 FEET WITH NO
       SIGNIFICANT WEATHER AND/OR OBSTRUCTIONS TO VISIBILITY.
       CURRENT SKY AND/OR WEATHER CONDITIONS ARE NOT AVAILABLE FOR
       CHILLICOTHE AND FARMINGTON.

MOZ001>031-035>038-043-044-053-054-030900-
...NORTHERN AND WESTERN MISSOURI...

CITY           SKY/WX    TMP DP  RH WIND       PRES   REMARKS
KANSAS CTY INT MOCLDY    66  63  90 NE8       29.93S
KANSAS C DTWN  CLOUDY    69  61  75 E9        29.91F
LEE`S SUMMIT   CLOUDY    67  61  81 E8        29.93F
ST JOSEPH      CLOUDY    66  61  84 E6        29.94F
CHILLICOTHE      N/A     63  61  93 CALM      29.96F
KIRKSVILLE     HVY RAIN  63  60  90 NE3       29.96F

$$
MOZ066>068-077>081-088>096-101>105-030900-
...SOUTHWEST MISSOURI...

CITY           SKY/WX    TMP DP  RH WIND       PRES   REMARKS
SPRINGFIELD    PTCLDY    71  68  90 N3        29.90F
JOPLIN         PTCLDY    71  70  96 S3        29.91S FOG

$$
MOZ032>034-039>042-045>050-055>058-069>072-030900-
...CENTRAL MISSOURI...

CITY           SKY/WX    TMP DP  RH WIND       PRES   REMARKS
COLUMBIA       CLOUDY    67  62  84 NE5       29.92F
JEFFERSON CITY CLOUDY    67  62  84 NE3       29.92S
ROLLA          CLOUDY    66  64  93 NE6       29.90F
SEDALIA        MOCLDY    67  62  84 E3        29.93F
OSAGE BEACH    CLOUDY    70  66  88 N5        29.91S

$$
MOZ051-052-059>065-030900-
...EAST CENTRAL MISSOURI...

CITY           SKY/WX    TMP DP  RH WIND       PRES   REMARKS
ST LOUIS INTL  MOCLDY    69  62  78 CALM      29.90F
SPIRIT OF STL  CLOUDY    68  64  87 CALM      29.88F
ST CHARLES     MOCLDY    67  62  84 N6        29.89F

$$
MOZ072>076-082>087-097>100-106>115-030900-
...SOUTH CENTRAL AND SOUTHEAST MISSOURI...

CITY           SKY/WX    TMP DP  RH WIND       PRES   REMARKS
CAPE GIRARDEAU CLOUDY    72  70  93 W5        29.85S
FARMINGTON     CLOUDY    66  63  88 NW5       29.93F
POPLAR BLUFF   RAIN      72  70  93 CALM      29.85F FOG
WEST PLAINS    CLOUDY    71  68  90 NE6       29.91F

$$


USA.gov is the U.S. government's official web portal to all federal, state and local government web resources and services.